PA3DZX-13 Weather Reports


Display with metric or nautical units.
time (UTC)temp
F
wind
direction
speed
MPH
gust
MPH
rain 1hr
in
rain 24hr
in
rain mn
in
humidity
%
barometer
mb
20260905102054 64 260 15.0 22.0 0.00 0.00 0.00 68 1019.2
20260905101825 64 260 15.0 22.0 0.00 0.00 0.00 68 1019.2
20260905100324 62 253 15.0 24.0 0.00 0.00 0.00 70 1019.0
20260905095529 64 252 15.0 26.0 0.00 0.00 0.00 64 1018.8
20260905094027 66 249 15.0 29.0 0.00 0.00 0.00 67 1018.6
20260905092527 64 257 20.0 29.0 0.00 0.00 0.00 68 1018.6
20260905091026 64 251 15.0 24.0 0.00 0.00 0.00 71 1018.4
20260905085526 64 243 13.0 22.0 0.00 0.00 0.00 75 1018.3
20260905084025 64 237 15.0 26.0 0.00 0.00 0.00 73 1018.0
20260905082525 62 244 15.0 26.0 0.00 0.00 0.00 73 1017.9
20260905081025 62 243 15.0 24.0 0.00 0.00 0.00 75 1017.7
20260905075524 62 239 15.0 24.0 0.00 0.00 0.00 75 1017.6
20260905074023 60 240 11.0 17.0 0.00 0.00 0.00 76 1017.4
20260905072523 60 238 13.0 17.0 0.00 0.00 0.00 77 1017.3
20260905071023 59 239 13.0 20.0 0.00 0.00 0.00 78 1017.3
20260905065523 59 236 11.0 15.0 0.00 0.00 0.00 79 1017.2
20260905064023 59 236 11.0 15.0 0.00 0.00 0.00 79 1017.2
20260905062523 57 230 8.0 13.0 0.00 0.00 0.00 81 1017.1
20260905061023 55 227 8.0 13.0 0.00 0.00 0.00 83 1016.9
20260905055523 55 225 8.0 13.0 0.00 0.00 0.00 83 1016.7
20260905054023 55 223 6.0 13.0 0.00 0.00 0.00 85 1016.6
20260905052523 55 223 6.0 11.0 0.00 0.00 0.00 85 1016.6
20260905051023 55 223 8.0 11.0 0.00 0.00 0.00 84 1016.5
20260905045523 55 226 6.0 11.0 0.00 0.00 0.00 84 1016.4
20260905044023 55 222 6.0 11.0 0.00 0.00 0.00 84 1016.2
20260905042523 55 228 8.0 11.0 0.00 0.00 0.00 83 1016.2
20260905041022 55 233 6.0 13.0 0.00 0.00 0.00 83 1016.0
20260905035522 55 235 6.0 13.0 0.00 0.00 0.00 82 1016.0
20260905034022 55 229 6.0 11.0 0.00 0.00 0.00 82 1015.9
20260905032522 55 228 6.0 11.0 0.00 0.00 0.00 83 1015.8
20260905031022 55 225 6.0 13.0 0.00 0.00 0.00 82 1015.8
20260905025522 55 233 6.0 13.0 0.00 0.00 0.00 80 1015.8
20260905024022 57 224 6.0 11.0 0.00 0.00 0.00 80 1015.6
20260905022522 55 224 6.0 11.0 0.00 0.00 0.00 81 1015.6
20260905021022 55 223 6.0 11.0 0.00 0.00 0.00 81 1015.5
20260905015522 55 223 6.0 11.0 0.00 0.00 0.00 81 1015.4
20260905014022 57 226 6.0 11.0 0.00 0.00 0.00 80 1015.3
20260905012522 57 230 6.0 11.0 0.00 0.00 0.00 80 1015.3
20260905011022 57 227 6.0 11.0 0.00 0.00 0.00 79 1015.4
20260905005522 57 225 6.0 11.0 0.00 0.00 0.00 80 1015.4
20260905004021 57 227 6.0 11.0 0.00 0.00 0.00 80 1015.3
20260905002522 57 233 8.0 11.0 0.00 0.00 0.00 79 1015.2
20260905001021 57 234 8.0 13.0 0.00 0.00 0.00 79 1015.2
20260904235521 57 236 8.0 15.0 0.00 0.00 0.00 79 1014.9
20260904234020 57 239 8.0 13.0 0.00 0.00 0.00 80 1014.9
20260904232520 59 233 8.0 13.0 0.00 0.00 0.00 78 1014.8
20260904231019 59 235 8.0 15.0 0.00 0.00 0.00 79 1014.7
20260904225520 59 234 8.0 13.0 0.00 0.00 0.00 79 1014.7
20260904224018 59 235 8.0 13.0 0.00 0.00 0.00 80 1014.5
20260904222519 59 230 6.0 11.0 0.00 0.00 0.00 80 1014.4
20260904221018 59 233 6.0 11.0 0.00 0.00 0.00 80 1014.3
20260904215517 59 235 6.0 11.0 0.00 0.00 0.00 82 1014.2
20260904214016 59 239 8.0 11.0 0.00 0.00 0.00 83 1014.2
20260904212516 59 236 8.0 11.0 0.00 0.00 0.00 82 1014.2
20260904211015 59 244 6.0 11.0 0.00 0.00 0.00 83 1014.0
20260904205515 59 248 6.0 11.0 0.00 0.00 0.00 82 1014.0
20260904204014 60 258 6.0 13.0 0.00 0.00 0.00 80 1013.9
20260904202515 60 257 6.0 13.0 0.00 0.00 0.00 80 1013.8
20260904201014 60 258 6.0 11.0 0.00 0.00 0.00 81 1013.7
20260904195514 60 259 6.0 11.0 0.00 0.00 0.00 81 1013.5
20260904194012 60 272 6.0 13.0 0.00 0.00 0.00 81 1013.3
20260904192512 60 277 6.0 13.0 0.00 0.00 0.00 80 1013.1
20260904191012 60 280 8.0 24.0 0.00 0.00 0.00 79 1012.9
20260904185513 60 280 13.0 24.0 0.00 0.00 0.00 78 1012.8
20260904184011 62 268 13.0 22.0 0.00 0.00 0.00 76 1012.3
20260904182512 62 261 11.0 17.0 0.00 0.00 0.00 77 1012.1
20260904181010 62 265 8.0 17.0 0.00 0.00 0.00 79 1011.9
20260904175510 62 268 11.0 15.0 0.00 0.00 0.00 78 1012.0
20260904174010 62 264 11.0 20.0 0.00 0.00 0.00 81 1011.5
20260904172510 64 262 11.0 20.0 0.00 0.00 0.00 79 1011.3
20260904171009 64 263 13.0 22.0 0.00 0.00 0.00 80 1011.2
20260904165510 64 267 11.0 20.0 0.00 0.00 0.00 82 1011.4
20260904164009 64 260 11.0 22.0 0.00 0.00 0.00 84 1011.0
20260904162510 64 267 11.0 22.0 0.00 0.00 0.00 83 1010.8
20260904161009 64 265 8.0 22.0 0.00 0.00 0.00 85 1011.0
20260904155509 64 265 13.0 22.0 0.00 0.00 0.00 85 1011.0
20260904154008 64 262 15.0 22.0 0.00 0.00 0.00 86 1010.8
20260904152508 64 262 15.0 26.0 0.00 0.00 0.00 88 1010.7
20260904151008 62 258 15.0 22.0 0.03 0.00 0.00 91 1010.4
20260904145508 62 255 13.0 20.0 0.01 0.00 0.00 92 1010.2
20260904144007 62 246 15.0 22.0 0.00 0.00 0.00 93 1010.0
20260904142507 62 246 13.0 20.0 0.08 0.00 0.00 94 1009.6
20260904141007 62 247 15.0 20.0 0.20 0.00 0.00 93 1009.8
20260904135506 62 243 13.0 20.0 0.14 0.00 0.00 93 1010.0
20260904134005 62 245 11.0 20.0 0.07 0.00 0.00 93 1009.7
20260904132505 62 245 11.0 20.0 0.08 0.00 0.00 93 1009.6
20260904131004 62 261 8.0 15.0 0.16 0.00 0.00 94 1009.8
20260904125505 62 266 8.0 15.0 0.08 0.00 0.00 93 1009.7
20260904124003 62 267 8.0 15.0 0.03 0.00 0.00 92 1009.7
20260904122503 64 275 8.0 15.0 0.01 0.00 0.00 90 1009.5
20260904121002 64 277 8.0 20.0 0.04 0.00 0.00 90 1009.3
20260904115502 64 275 11.0 20.0 0.09 0.00 0.00 88 1009.5
20260904114001 66 274 15.0 29.0 0.29 0.00 0.00 91 1009.1
20260904112502 68 240 17.0 33.0 0.05 0.00 0.00 87 1008.8
20260904111000 69 232 22.0 33.0 0.00 0.00 0.00 80 1008.6
20260904105501 69 224 20.0 31.0 0.00 0.00 0.00 80 1008.6
20260904104000 69 227 15.0 24.0 0.00 0.00 0.00 85 1008.8
20260904102500 68 225 15.0 24.0 0.00 0.00 0.00 88 1008.8